Simultaneous Nadir Overpasses (SNOs) Predictions

Prediction of SNOs between NOAA-20 and NOAA-19 Satellite Orbit:

Table of predicted SNOs for the next 14.0 days since TLE Epoch: 6/14/2019
Index Date (NOAA-20) Time (NOAA-20) Lat,Lon (NOAA-20) SZA (NOAA-20 ) Date (NOAA-19) Time (NOAA-19) Lat,Lon (NOAA-19) SZA (NOAA-19 ) Distance(km) Time Diff (sec)
1 06/27/2019 22:52:55 -80.04, -22.34 120.81 06/27/2019 22:51:46 -80.03, -22.28 120.78 1.40 69
2 06/27/2019 23:43:40 80.04, 144.98 59.20 06/27/2019 23:42:41 80.02, 144.84 59.23 3.43 59
3 06/28/2019 00:34:25 -80.04, -47.75 120.80 06/28/2019 00:33:47 -80.03, -47.84 120.78 2.48 38
4 06/28/2019 01:25:10 80.04, 119.56 59.21 06/28/2019 01:24:41 80.04, 119.60 59.22 0.84 29
5 06/28/2019 02:15:55 -80.05, -73.17 120.78 06/28/2019 02:15:47 -80.05, -73.08 120.79 1.65 8
6 06/28/2019 03:06:40 80.05, 94.15 59.22 06/28/2019 03:06:42 80.03, 94.04 59.22 2.39 2
7 06/28/2019 03:57:25 -80.05, -98.58 120.77 06/28/2019 03:57:48 -80.04, -98.64 120.78 1.46 23
8 06/28/2019 04:48:10 80.05, 68.73 59.23 06/28/2019 04:48:42 80.05, 68.80 59.21 1.44 32
9 06/28/2019 05:38:55 -80.05,-124.00 120.76 06/28/2019 05:39:48 -80.06,-123.88 120.80 2.37 53
10 06/28/2019 06:29:40 80.05, 43.32 59.24 06/28/2019 06:30:43 80.05, 43.25 59.22 1.39 63




NCC Satellite Simultaneous Nadir Overpasses (SNOs) Prediction Service
